Utilitzem cookies pròpies i de tercers per millorar la seva experiència i els nostres serveis,analitzant la navegació en el nostre Lloc Web. Si continua navegant, vostè està acceptant el seu ús. Podeu obtenir més informació a la nostra Política de cookies. OK

En viu: El Trail 55 Km

El Trail 55 Km

Resultats provisionals

Potser que algun punt de control no tingui connexió a internet o la tingui deficient.

En aquest cas els passos no es podran visualitzar en directe i aniran apareixent a mesura que siguin transmesos des dels punts de control.

Arribada - Arribada


15
Pendents

263
Han passat

Homes

# - Posició P.C. - Participant Temps Dorsal

1 - 1 - MARTI LAZARO CORDERO 06:03:11 1318

2 - 2 - LLUíS RUIZ OLLER 06:03:12 1331

3 - 3 - NIL GAJA BALLARÓ 06:49:08 1080

4 - 4 - ALBERT GARCIA COBOS 07:01:25 1287

5 - 5 - DANI AGUIRRE ARDANAZ 07:02:37 1227

6 - 6 - DAVID TERUEL HUGUET 07:14:01 1327

7 - 7 - JORDI DELGADO SANGLAS 07:17:25 1062

8 - 8 - GUILLEM ALBA GARCIA 07:17:28 1105

9 - 9 - ARNAU AMADÓ BASSOLS 07:21:10 1165

10 - 10 - JESúS ÁLVAREZ MORALES 07:25:50 1245

11 - 11 - DAVID SEREROLS TORRAS 07:30:39 1017

12 - 12 - DANI FLORES HERNANDEZ 07:35:21 1306

13 - 13 - JOEL VALLDOSERA SáNCHEZ 07:35:54 1044

14 - 14 - PAU CASTANYER BENAVENT 07:40:36 1161

15 - 16 - ABEL BELTRAN CAMPILLO 07:46:41 1211

16 - 17 - ALBERT SÁNCHEZ CRIBALLÉS 07:50:21 1134

17 - 18 - JORDI TORRENT PARCET 07:51:51 1210

18 - 19 - ERIC NAVARRO NAJAR 07:53:15 1006

19 - 20 - CRISTIAN TERINGUER CANELA 07:57:02 1157

20 - 21 - VICENS RIOS GALLART 07:57:29 1022

21 - 22 - DANIEL ALMONACID VICTORIANO 07:59:32 1015

22 - 23 - MIQUEL AULADELL DORDAL 08:00:34 1304

23 - 26 - AITOR LóPEZ ALCAY 08:07:36 1335

24 - 27 - XAVI BERNAL BAENA 08:09:59 1252

25 - 28 - FRANCESC ROIG 08:11:12 1051

26 - 29 - NAïM BAULENAS SANGLAS 08:15:00 1202

27 - 30 - OSCAR PEREZ MILLAN 08:17:28 1186

28 - 31 - GUILLEM PADROSA DANéS 08:18:23 1322

29 - 32 - UNAI ARTETA CASTELAR 08:18:25 1321

30 - 33 - CRISTIAN LOPEZ REYES 08:19:47 1056

31 - 34 - JORDI ALEMANY QUINTANA 08:20:47 1336

32 - 35 - CARLES VIDAL BARRERA 08:23:06 1103

33 - 36 - JORDI PLANS CONTEL 08:25:19 1117

34 - 37 - MARIUS GAMISSANS SALA 08:28:11 1147

35 - 38 - ENRIC SERRATOSA SOLà 08:29:04 1236

36 - 39 - JOSEP ZANUY 08:29:39 1187

37 - 40 - GERARD SALARICH CROSAS 08:32:05 1146

38 - 41 - GERARD CIURANS TIRADO-MIGUEIZ 08:32:11 1226

39 - 42 - RICARD CASTAñO SOLER 08:36:00 1267

40 - 43 - ANTONI BADIA MUNIENTE 08:37:38 1312

41 - 44 - CAIN CHRISTOFOROU 08:38:38 1201

42 - 45 - ORIOL SALA PUIGDERRAJOLS 08:38:40 1119

43 - 46 - MIQUEL MUZáS ESPUNY 08:38:51 1205

44 - 48 - CARLES AMETLLER SULA 08:43:51 1128

45 - 50 - JORDI CASANOVAS SABARIEGO 08:44:21 1269

46 - 51 - RAMON CASERRAS GUERRERO 08:47:21 1153

47 - 52 - SERGIO LEAL LOPEZ 08:48:04 1276

48 - 53 - RAMóN BORREGUERO SANCHEZ 08:48:07 1230

49 - 54 - JAVI FERNANDEZ NAVARRO 08:48:07 1159

50 - 55 - JOSEP MORENO CARRERA 08:49:43 1145

51 - 56 - RAüL JORGE ANGUITA 08:53:00 1254

52 - 57 - ALBERT TORRENS VIVES 08:54:25 1296

53 - 58 - ALBERT FABRé LLORENS 08:55:26 1191

54 - 59 - XAVIER MIRANDA MIRANDA BEGUE 08:55:28 1083

55 - 60 - LLORENç CAñíS 08:59:07 1213

56 - 61 - JOAN AGUSTí NúñEZ GENESTóS 09:01:20 1079

57 - 62 - GUILLEM LOPEZ FAGEDA 09:02:58 1148

58 - 63 - FRANCESC CAZORLA MUñOZ 09:03:05 1324

59 - 64 - JOSEP GARCIA BORRAS 09:04:26 1093

60 - 65 - FERNANDO BARCOS NAVARRO 09:05:15 1172

61 - 67 - ALEIX MORERA ROCA 09:05:59 1288

62 - 68 - OSCAR MORAL HIDALGO 09:07:09 1257

63 - 70 - ISMAEL ALZINA CARRERAS 09:14:13 1299

64 - 71 - RUBEN GARCIA CALDERON 09:15:55 1176

65 - 73 - DAVID MUñOZ CASELLAS 09:18:43 1319

66 - 75 - ANGEL ARUMI JIMENEZ 09:20:11 1325

67 - 76 - ALBERT ARUMí CATALà 09:20:12 1013

68 - 77 - RAFAEL LOPéZ RECHE 09:20:16 1242

69 - 78 - ROGER GIL BERTRAN 09:20:55 1231

70 - 80 - NIS MATEU BOIXADERAS 09:23:17 1139

71 - 81 - DANIEL CARBONELL MERINO 09:23:29 1007

72 - 83 - IGNASI SERRANO COLL 09:26:39 1323

73 - 84 - DAVID LEIVA ROLDAN 09:27:24 1075

74 - 85 - ANGEL BOTELLO ARMENGOL 09:28:47 1032

75 - 86 - ROBERT PLANAS COLL 09:28:54 1049

76 - 87 - YAN MAURAKH - 09:29:06 1328

77 - 88 - SERGIO ASENSIO ROMERO 09:29:40 1184

78 - 89 - ALEJANDRO AZORÍN RODRÍGUEZ 09:31:05 1100

79 - 90 - DAVID GAZQUEZ GARCIA 09:31:19 1150

80 - 91 - DANIEL RODRíGUEZ PEREZ 09:31:19 1010

81 - 92 - XAVIER FABRE HEREDIA 09:31:20 1222

82 - 93 - GENíS BAYéS COSTA 09:32:15 1109

83 - 94 - PAU SERRA ESCANDELL 09:32:16 1098

84 - 95 - JOSEP BAROT CASANY 09:33:02 1021

85 - 96 - DAVID MIGUEL SUAREZ 09:33:37 1197

86 - 97 - JORDI CASACUBERTA JIMENEZ 09:33:37 1282

87 - 98 - ANDREU LóPEZ ANADóN 09:35:10 1009

88 - 99 - DIEGO BARROSO BERMEJO 09:36:06 1059

89 - 101 - MOISES OLMEDA 09:36:16 1008

90 - 102 - AURELIAN OANCEA . 09:36:38 1333

91 - 103 - ISIDRO GIL PÉREZ 09:38:46 1320

92 - 104 - JOSEP FARRERA SINFREU 09:38:58 1270

93 - 105 - GUIFRÉ PORQUERES PLANELLES 09:39:27 1194

94 - 107 - JULIA FRANCH NADAL 09:46:43 1268

95 - 108 - JUAN MIGUEL DE LA TORRE MORALES 09:46:52 1216

96 - 109 - MARCEL BUENO BRUGUES 09:46:55 1133

97 - 110 - IGNACIO FABEIRO GONZALEZ 09:47:12 1277

98 - 112 - NIL GRI LLEBOT 09:53:03 1045

99 - 113 - JONATHAN ANTONI CIERCO 09:53:03 1041

100 - 114 - JOSE PEREZ GONZALEZ 09:54:07 1048

101 - 115 - ENRIC COROMINAS I BOSCH 09:54:25 1046

102 - 116 - ROBERTO BAÑOS GONZALEZ 09:55:45 1180

103 - 117 - DAVID DE LA COBA ALQUEZAR 09:55:47 1285

104 - 118 - KRLOS MARTíNEZ GUERRA 09:57:34 1149

105 - 119 - DAVID VILCHEZ MORENO 09:57:47 1281

106 - 120 - ISIDRE ESCAYOLA GARCIA DEL PRADO 09:58:04 1067

107 - 121 - CRISTóBAL M. MACARRO CANO 09:58:23 1011

108 - 122 - TONI MARQUEZ JIMENEZ 09:58:41 1039

109 - 123 - PEDRO MOLINA RODRIGUEZ 09:59:35 1087

110 - 124 - BERNAT GORDUN QUILES 10:00:09 1310

111 - 125 - JAUME SOBRERROCA ALSINA 10:02:30 1235

112 - 126 - ROGER BATALLA CARABASSA 10:04:03 1122

113 - 127 - MARCEL TORT FERNANDEZ 10:04:22 1141

114 - 128 - JUAN MANZANO RUBIO 10:05:53 1131

115 - 129 - JOSEP A JARAMILLO CALDERóN 10:06:00 1188

116 - 130 - ROGER PEIX SOLER 10:06:55 1033

117 - 131 - ANTONIO MORALES MARTINEZ 10:07:55 1138

118 - 132 - DIEGO CARRETERO RODRIGUEZ 10:07:56 1301

119 - 133 - ORIOL FERNANDEZ HOSPITAL 10:07:58 1089

120 - 134 - MARC CASANOVA BELLO 10:08:32 1054

121 - 135 - TONI SALAS PALLICER 10:10:12 1248

122 - 136 - VICTOR RODRIGUEZ BARCONES 10:13:00 1121

123 - 137 - JORDI DE LA VEGA ARUS 10:13:55 1279

124 - 138 - STEFAN GABRIEL DEL BRIO DI NOTO 10:16:15 1221

125 - 139 - JUAN MARQUEZ LOPEZ 10:17:11 1198

126 - 140 - ARNAU GRANé MASFRET 10:18:25 1265

127 - 141 - JUAN ANTONIO VIÑUELA GONZALEZ 10:18:49 1206

128 - 142 - PEPE PORRAS JIMENEZ 10:18:50 1219

129 - 143 - TONI PORRAS JIMENEZ 10:18:51 1208

130 - 144 - TONI MAESTRE GARCIA 10:18:52 1050

131 - 145 - ALEJANDRO RUBIO GONZALEZ 10:19:10 1293

132 - 146 - PLACI ABELEDO SANCHEZ 10:19:33 1160

133 - 147 - JUAN CARLOS ABELEDO SANCHEZ 10:19:34 1167

134 - 148 - GUIDO CANCARINI CAPPONI 10:19:37 1136

135 - 149 - ALBERT MESTRES SUGRAñES 10:19:52 1004

136 - 150 - XEVI PALLAROLS PALLàS 10:20:24 1292

137 - 151 - JAUME CORELLA VIVó 10:20:38 1171

138 - 152 - LLORENç REIXACH CRUZ 10:26:46 1016

139 - 153 - ADRIA NOTARIO BARDAJI 10:26:56 1256

140 - 154 - F. XAVIER FABREGAT CASAL 10:27:56 1127

141 - 155 - JOAN CALLEJON BOQUERA 10:28:10 1240

142 - 156 - CARLOS CARRASCOSA TOMAS 10:28:24 1243

143 - 157 - OLIVER GALLEGO NAJAR 10:29:04 1014

144 - 158 - JORDI TOLDOS BUENO 10:29:19 1082

145 - 159 - XAVIER SOLER I BOSCH 10:30:32 1120

146 - 161 - ALBERT SALA SIDERA 10:31:42 1063

147 - 162 - PERE LOPEZ SORIANOO 10:31:45 1053

148 - 163 - ÒSCAR GONZàLEZ GONZàLEZ 10:32:13 1027

149 - 164 - SALVATORE MESEGUE VALERO 10:32:35 1291

150 - 165 - XAVIER PUIG ESCUDERO 10:32:37 1086

151 - 166 - QUIM MENDIETA SALA-BELLSOLELL 10:34:33 1156

152 - 167 - JOAN MARESMA NUALART 10:34:34 1012

153 - 168 - SERGI ALSINA LLORENTE 10:34:46 1060

154 - 169 - FERRAN MELERO VIGARA 10:35:58 1137

155 - 170 - ISMAEL COBO PIMENTEL 10:36:00 1095

156 - 171 - JAN OLIVERES GONZALEZ 10:38:24 1334

157 - 172 - BRIAN MEDINA GRANADOS 10:39:09 1262

158 - 173 - GERARD GARCIA MONTSERRATE 10:39:26 1263

159 - 174 - TOMAS LOPEZ ZORNOZA 10:42:12 1154

160 - 175 - JORGE FERNANDEZ LIROLA 10:42:37 1061

161 - 176 - ALEIX DANOT CUCH 10:42:46 1260

162 - 177 - JUAN ANTONIO CAZORLA ZAMBRANA 10:45:02 1289

163 - 178 - ANTON VILARDELL AGULLó 10:46:23 1028

164 - 179 - MARC CASES 10:46:48 1261

165 - 180 - JOSE ANGEL REVELLES NúñEZ 10:46:51 1042

166 - 181 - AITOR MATA MARTÍNEZ 10:47:04 1088

167 - 182 - JAUME BARRIACH GAYA 10:47:28 1174

168 - 184 - DAVID DIAZ MAYOR 10:48:41 1030

169 - 185 - DANIEL BRUN RAMIREZ 10:49:04 1018

170 - 186 - XAVIER CAMPS BAGET 10:52:42 1253

171 - 187 - JOSEP CALI CABEZA 10:52:42 1085

172 - 188 - JOAN BULDó I POLLS 10:55:39 1166

173 - 189 - ABEL CANALDA 11:06:51 1104

174 - 190 - DAVID CARRERAS GONZáLEZ 11:06:52 1108

175 - 191 - RAFO IGLESIAS LOBO 11:07:26 1305

176 - 192 - JAVITO RUIZ 11:07:27 1314

177 - 193 - DAVID GARCIA FERNANDEZ 11:08:51 1020

178 - 194 - TONI RUIZ JOVER 11:08:51 1040

179 - 196 - SERGI GALLEGO ARJONA 11:14:57 1215

180 - 197 - SERGI CAPDEVILA NORTES 11:16:21 1132

181 - 198 - IGNASI BASSAS BUJ 11:16:21 1129

182 - 199 - MIQUEL RAMOS LOPEZ 11:17:01 1173

183 - 200 - VICTOR RUBIA GARCíA 11:22:58 1143

184 - 202 - PACO GARCIA RUIZ 11:24:28 1247

185 - 203 - PERE SEGURA GARSABALL 11:24:30 1273

186 - 204 - JAUME FABREGAT GOU 11:24:31 1196

187 - 205 - XAVI DÍAZ VENDRELL 11:24:31 1170

188 - 206 - TONI DONIGA 11:28:00 1233

189 - 207 - DAVID DONIGA VERA 11:28:01 1217

190 - 208 - JULIO LLORENTE CASTILLO 11:28:08 1084

191 - 209 - MOISES PLUJA BLANCH 11:31:14 1283

192 - 210 - DAVID ROS HOMS 11:31:20 1207

193 - 211 - LLUIS RIBES CASTRO 11:32:32 1123

194 - 212 - JORDI ANGLADA CASAS 11:35:53 1255

195 - 213 - PEDRO MIGUEL PERELLó PALLISER 11:36:05 1295

196 - 214 - JOSEP PERELLO 11:37:28 1309

197 - 215 - JORDI RIU MUDARRA 11:37:30 1019

198 - 216 - EDUARD CAPDEVILA ROMEU 11:37:41 1057

199 - 217 - JORDI FRANCH ANTONELL 11:38:57 1068

200 - 218 - PERE FRANCH ANTONELL 11:38:58 1055

201 - 219 - ENRIC BLANCAFORT MUMBRIU 11:39:26 1200

202 - 220 - DAVID LEO HEREDIA 11:46:06 1106

203 - 221 - TONI AMBLAS MOLINA 11:46:41 1294

204 - 222 - MARC MASNOU RUBIó 11:46:45 1113

205 - 223 - ALBERT CUTRINA RUBIO 11:46:45 1114

206 - 224 - XEVI HERNANDEZ CLOTA 11:46:47 1115

207 - 225 - RAUL JIMENEZ RIVERO 11:50:18 1107

208 - 226 - ALBERT COLS VAZQUEZ 11:51:13 1307

209 - 227 - ADAM CARBONELL VISO 11:51:35 1244

210 - 228 - GONZALO VELASCO REINA 11:57:38 1274

211 - 229 - MARC SERRAT DIAZ 11:57:51 1005

212 - 230 - SALVA PILES MARTIN 12:04:46 1241

213 - 231 - MARC MOLINE RODRIGUEZ 12:04:50 1259

214 - 232 - ROGER GARCIA SUBIRANA 12:04:53 1258

215 - 233 - JOSé MARíA FERRER GIRóN 12:12:47 1026

216 - 234 - DANIEL JEREZ CEBALLOS 12:12:50 1034

217 - 235 - ALBERTO PLAZA GAMITO 12:12:51 1225

218 - 236 - JUSTO MARTIN SIMON 12:13:03 1073

219 - 237 - ORIOL BAIXAS MORALES 12:18:47 1135

220 - 238 - XAVI ALVAREZ ESTANY 12:35:52 1264

221 - 239 - CARLES RAMOS SOLE 12:37:39 1003

222 - 241 - IñAKI ALONSO DE LOS SANTOS 12:39:57 1116

223 - 243 - ALBERT SOLER FREIXER 12:43:52 1035

224 - 244 - ADRIÀ SOLER ABIAN 12:43:54 1118

225 - 245 - JOHN FÉLIX BIGGS GÓMEZ 12:46:27 1158

226 - 248 - JOAN BACH CODINA 12:52:26 1316

227 - 250 - IVAN JIMéNEZ RODà 12:52:57 1193

228 - 251 - FRANCISCO ANTONIO BARCELÓ MARTÍNEZ 12:56:18 1218

229 - 252 - XAVIER MARTíNEZ CAPABLO 13:04:43 1052

230 - 253 - JORDI FIGULS GOMEZ 13:09:19 1183

231 - 254 - ADRIA SALANUEVA 13:10:07 1266

232 - 255 - ALFONSO AGUILERA GARCIA 13:14:55 1110

233 - 256 - CéSAR ARRANZ FERNANDEZ 13:14:55 1112

234 - 258 - DAVID COSTA SAMBLAS 13:17:52 1179

235 - 259 - MIGUEL ÁNGEL PéREZ BELBIS 13:37:18 1177

236 - 260 - JULIO BERRAL LOPEZ 13:53:15 1178

237 - 261 - DANIEL LOPEZ SANCHEZ 13:53:59 1130

238 - 262 - SANTIAGO RIOS AZUARA 13:55:25 1029

239 - 263 - JOSEP NAVARRO GARCíA 14:20:52 1076

Dones

# - Posició P.C. - Participant Temps Dorsal

1 - 15 - ANGELS LLOBERA VICENS 07:43:37 1330

2 - 24 - CLAUDIA BOSCH RODERO 08:00:55 1224

3 - 25 - CAROLINA RIUS HERNANDEZ 08:06:39 1308

4 - 47 - JELENA MALYSEVA -- 08:41:27 1300

5 - 49 - SUSANA MORENO MORATONA 08:44:21 1151

6 - 66 - EROLA TORTADèS VERDAGUER 09:05:16 1002

7 - 69 - SANDRA MARIA VALENZUELA MENA 09:12:59 1195

8 - 72 - ROCIO RIOS ORTEGA 09:16:57 1043

9 - 74 - ELENA SANCHEZ GOMEZ 09:19:22 1315

10 - 79 - NEUS PEIRÓ PIFARRÉ 09:21:32 1311

11 - 82 - ALICIA GARRIDO SERRA 09:24:24 1313

12 - 100 - SARA GARRE PELEGRINA 09:36:14 1031

13 - 106 - EVA MARIA TAPIA LUQUE 09:39:27 1239

14 - 111 - TERESA FORN MUNNE 09:50:24 1290

15 - 160 - MARTA SEGURA PARRA 10:31:19 1077

16 - 183 - MARIBEL ALFARO NOGUERA 10:48:40 1234

17 - 195 - THAIS JORBA DELGADO 11:13:46 1096

18 - 201 - PAULA ALSINA ROSANAS 11:23:05 1070

19 - 240 - CRISTINA GARCIA PEREZ 12:39:56 1081

20 - 242 - ELISABET BUERA PORTA 12:39:57 1298

21 - 246 - ANNA TRISTANY CODINA 12:47:05 1185

22 - 247 - CARLA LóPEZ PéREZ 12:47:05 1074

23 - 249 - ISABEL COVAS BERNAL 12:52:26 1317

24 - 257 - MARTA ESCALE MORALES 13:17:51 1209

Publicitat